When you browse on this site, cookies collect data to enhance your experience and personalize the content and advertising you see.
Visit our Privacy Policy to learn more. By continuing to use the site, you agree to this use of cookies and data.
  • en Suisse
  • Liste des pays
  • À 7 jours
  • Température de l'eau
  • Carte satellitaire
  • Carte météo
  • Widgets météo
  • user-avatar
    Se connecter

    Météo par heure à Eldoret

    Ce jour, 16 Juin, Dimanche

    Heure Température Précipitation Vent Pression Humidité
    00:00 +14°C° 0.1 mm 1 m/s 597 mmHg 94%
    01:00 +14°C° 0.1 mm 1 m/s 596 mmHg 94%
    02:00 +14°C° 0 mm 1 m/s 596 mmHg 93%
    03:00 +14°C° 0.1 mm 1 m/s 596 mmHg 93%
    04:00 +14°C° 0.1 mm 1 m/s 597 mmHg 93%
    05:00 +14°C° 0.1 mm 1 m/s 597 mmHg 93%
    06:00 +14°C° 0 mm 0 m/s 598 mmHg 90%
    07:00 +16°C° 0 mm 0 m/s 598 mmHg 86%
    08:00 +17°C° 0 mm 0 m/s 599 mmHg 84%
    09:00 +18°C° 0.7 mm 0 m/s 599 mmHg 83%
    10:00 +20°C° 0.7 mm 1 m/s 599 mmHg 83%
    11:00 +21°C° 0.7 mm 1 m/s 599 mmHg 83%
    12:00 +21°C° 0.9 mm 1 m/s 599 mmHg 83%
    13:00 +20°C° 0.9 mm 1 m/s 598 mmHg 84%
    14:00 +20°C° 0.9 mm 1 m/s 597 mmHg 85%
    15:00 +20°C° 0.9 mm 1 m/s 597 mmHg 88%
    16:00 +19°C° 0.9 mm 1 m/s 597 mmHg 91%
    17:00 +19°C° 0.9 mm 1 m/s 597 mmHg 94%
    18:00 +18°C° 0.5 mm 1 m/s 597 mmHg 95%
    19:00 +16°C° 0.5 mm 1 m/s 597 mmHg 95%
    20:00 +13°C° 0.5 mm 0 m/s 597 mmHg 96%
    21:00 +14°C° 0 mm 1 m/s 597 mmHg 96%
    22:00 +14°C° 0 mm 1 m/s 597 mmHg 96%
    23:00 +14°C° 0 mm 1 m/s 597 mmHg 96%

    Demain, 17 Juin, Lundi

    Heure Température Précipitation Vent Pression Humidité
    00:00 +13°C° 0.1 mm 1 m/s 597 mmHg 96%
    01:00 +13°C° 0.1 mm 1 m/s 597 mmHg 95%
    02:00 +13°C° 0.1 mm 1 m/s 597 mmHg 95%
    03:00 +13°C° 0 mm 1 m/s 597 mmHg 95%
    04:00 +13°C° 0 mm 1 m/s 597 mmHg 95%
    05:00 +13°C° 0 mm 1 m/s 597 mmHg 95%
    06:00 +14°C° 0.1 mm 0 m/s 598 mmHg 92%
    07:00 +15°C° 0.1 mm 0 m/s 599 mmHg 89%
    08:00 +17°C° 0.1 mm 0 m/s 600 mmHg 86%
    09:00 +18°C° 0.8 mm 0 m/s 600 mmHg 84%
    10:00 +21°C° 0.8 mm 1 m/s 600 mmHg 81%
    11:00 +22°C° 0.8 mm 1 m/s 600 mmHg 78%
    12:00 +21°C° 1.6 mm 1 m/s 600 mmHg 81%
    13:00 +21°C° 1.6 mm 1 m/s 599 mmHg 83%
    14:00 +21°C° 1.6 mm 1 m/s 599 mmHg 86%
    15:00 +20°C° 1.7 mm 1 m/s 598 mmHg 88%
    16:00 +18°C° 1.7 mm 0 m/s 598 mmHg 90%
    17:00 +17°C° 1.7 mm 0 m/s 598 mmHg 93%
    18:00 +16°C° 0.5 mm 0 m/s 598 mmHg 93%
    19:00 +15°C° 0.5 mm 0 m/s 598 mmHg 94%
    20:00 +13°C° 0.5 mm 0 m/s 598 mmHg 94%
    21:00 +13°C° 0.2 mm 0 m/s 598 mmHg 94%
    22:00 +13°C° 0.2 mm 0 m/s 598 mmHg 94%
    23:00 +13°C° 0.2 mm 0 m/s 598 mmHg 94%

    Après-demain, 18 Juin, Mardi

    Heure Température Précipitation Vent Pression Humidité
    00:00 +14°C° 0.2 mm 1 m/s 598 mmHg 94%
    01:00 +14°C° 0.2 mm 1 m/s 597 mmHg 94%
    02:00 +14°C° 0.2 mm 1 m/s 597 mmHg 94%
    03:00 +14°C° 0 mm 1 m/s 597 mmHg 94%
    04:00 +13°C° 0 mm 1 m/s 597 mmHg 94%
    05:00 +13°C° 0 mm 1 m/s 597 mmHg 94%
    06:00 +15°C° 0 mm 1 m/s 598 mmHg 91%
    07:00 +16°C° 0 mm 1 m/s 599 mmHg 88%
    08:00 +19°C° 0 mm 1 m/s 600 mmHg 85%
    09:00 +19°C° 0.1 mm 2 m/s 600 mmHg 77%
    10:00 +20°C° 0.1 mm 2 m/s 601 mmHg 70%
    11:00 +23°C° 0.1 mm 2 m/s 601 mmHg 62%
    12:00 +23°C° 0.3 mm 2 m/s 601 mmHg 64%
    13:00 +23°C° 0.3 mm 2 m/s 600 mmHg 65%
    14:00 +21°C° 0.3 mm 2 m/s 600 mmHg 67%
    15:00 +21°C° 0.5 mm 1 m/s 599 mmHg 74%
    16:00 +20°C° 0.5 mm 1 m/s 598 mmHg 82%
    17:00 +19°C° 0.5 mm 1 m/s 598 mmHg 90%
    18:00 +18°C° 0.1 mm 1 m/s 598 mmHg 92%
    19:00 +15°C° 0.1 mm 1 m/s 598 mmHg 94%
    20:00 +14°C° 0.1 mm 1 m/s 598 mmHg 96%
    21:00 +14°C° 0.1 mm 1 m/s 598 mmHg 95%
    22:00 +14°C° 0.1 mm 1 m/s 598 mmHg 94%
    23:00 +14°C° 0.1 mm 1 m/s 598 mmHg 93%

    19 Juin, Mercredi

    Heure Température Précipitation Vent Pression Humidité
    00:00 +14°C° 0 mm 1 m/s 597 mmHg 93%
    01:00 +13°C° 0 mm 1 m/s 597 mmHg 93%
    02:00 +13°C° 0 mm 1 m/s 597 mmHg 93%
    03:00 +13°C° 0 mm 1 m/s 597 mmHg 94%
    04:00 +13°C° 0 mm 1 m/s 597 mmHg 94%
    05:00 +11°C° 0 mm 0 m/s 597 mmHg 94%
    06:00 +13°C° 0 mm 0 m/s 598 mmHg 90%
    07:00 +15°C° 0 mm 0 m/s 599 mmHg 86%
    08:00 +17°C° 0 mm 0 m/s 600 mmHg 82%
    09:00 +21°C° 0 mm 1 m/s 600 mmHg 73%
    10:00 +22°C° 0 mm 1 m/s 601 mmHg 64%
    11:00 +24°C° 0 mm 1 m/s 601 mmHg 56%
    12:00 +23°C° 0.2 mm 1 m/s 600 mmHg 59%
    13:00 +23°C° 0.2 mm 1 m/s 600 mmHg 63%
    14:00 +23°C° 0.2 mm 1 m/s 599 mmHg 67%
    15:00 +22°C° 0.5 mm 1 m/s 599 mmHg 75%
    16:00 +20°C° 0.5 mm 1 m/s 598 mmHg 82%
    17:00 +19°C° 0.5 mm 1 m/s 598 mmHg 89%
    18:00 +18°C° 0.2 mm 1 m/s 598 mmHg 91%
    19:00 +15°C° 0.2 mm 1 m/s 597 mmHg 93%
    20:00 +13°C° 0.2 mm 0 m/s 597 mmHg 95%
    21:00 +13°C° 0.2 mm 0 m/s 597 mmHg 94%
    22:00 +13°C° 0.2 mm 0 m/s 597 mmHg 94%
    23:00 +13°C° 0.2 mm 0 m/s 597 mmHg 93%

    20 Juin, Jeudi

    Heure Température Précipitation Vent Pression Humidité
    00:00 +13°C° 0.1 mm 1 m/s 597 mmHg 94%
    01:00 +13°C° 0.1 mm 1 m/s 596 mmHg 94%
    02:00 +13°C° 0.1 mm 1 m/s 596 mmHg 94%
    03:00 +13°C° 0 mm 1 m/s 596 mmHg 94%
    04:00 +13°C° 0 mm 1 m/s 596 mmHg 94%
    05:00 +13°C° 0 mm 1 m/s 596 mmHg 95%
    06:00 +14°C° 0 mm 1 m/s 597 mmHg 90%
    07:00 +15°C° 0 mm 0 m/s 598 mmHg 86%
    08:00 +17°C° 0 mm 0 m/s 599 mmHg 82%
    09:00 +21°C° 0 mm 1 m/s 600 mmHg 74%
    10:00 +22°C° 0 mm 1 m/s 600 mmHg 66%
    11:00 +24°C° 0 mm 2 m/s 600 mmHg 57%
    12:00 +23°C° 0.4 mm 2 m/s 600 mmHg 62%
    13:00 +23°C° 0.4 mm 2 m/s 599 mmHg 66%
    14:00 +22°C° 0.4 mm 1 m/s 598 mmHg 70%
    15:00 +21°C° 0.8 mm 1 m/s 598 mmHg 77%
    16:00 +20°C° 0.8 mm 1 m/s 597 mmHg 85%
    17:00 +19°C° 0.8 mm 1 m/s 597 mmHg 92%
    18:00 +18°C° 0.5 mm 1 m/s 597 mmHg 93%
    19:00 +16°C° 0.5 mm 1 m/s 597 mmHg 94%
    20:00 +13°C° 0.5 mm 0 m/s 597 mmHg 94%
    21:00 +14°C° 0.1 mm 1 m/s 597 mmHg 95%
    22:00 +14°C° 0.1 mm 1 m/s 597 mmHg 95%
    23:00 +14°C° 0.1 mm 1 m/s 597 mmHg 95%

    21 Juin, Vendredi

    Heure Température Précipitation Vent Pression Humidité
    00:00 +14°C° 0 mm 1 m/s 597 mmHg 95%
    01:00 +13°C° 0 mm 1 m/s 596 mmHg 95%
    02:00 +13°C° 0 mm 1 m/s 596 mmHg 94%
    03:00 +13°C° 0 mm 1 m/s 596 mmHg 94%
    04:00 +13°C° 0 mm 1 m/s 596 mmHg 93%
    05:00 +13°C° 0 mm 1 m/s 596 mmHg 93%
    06:00 +15°C° 0 mm 1 m/s 597 mmHg 88%
    07:00 +16°C° 0 mm 0 m/s 598 mmHg 82%
    08:00 +18°C° 0 mm 0 m/s 599 mmHg 77%
    09:00 +21°C° 0 mm 1 m/s 600 mmHg 71%
    10:00 +22°C° 0 mm 1 m/s 600 mmHg 65%
    11:00 +23°C° 0 mm 2 m/s 600 mmHg 58%
    12:00 +23°C° 0.6 mm 2 m/s 599 mmHg 65%
    13:00 +21°C° 0.6 mm 2 m/s 598 mmHg 72%
    14:00 +20°C° 0.6 mm 2 m/s 597 mmHg 79%
    15:00 +19°C° 0.8 mm 2 m/s 597 mmHg 83%
    16:00 +20°C° 0.8 mm 1 m/s 597 mmHg 88%
    17:00 +19°C° 0.8 mm 1 m/s 597 mmHg 92%
    18:00 +18°C° 0.4 mm 1 m/s 597 mmHg 93%
    19:00 +15°C° 0.4 mm 1 m/s 597 mmHg 94%
    20:00 +14°C° 0.4 mm 1 m/s 597 mmHg 95%
    21:00 +14°C° 0 mm 1 m/s 596 mmHg 95%
    22:00 +14°C° 0 mm 1 m/s 596 mmHg 95%
    23:00 +13°C° 0 mm 1 m/s 596 mmHg 94%
    Voir plus